Date String (YYYY-MM-DD hh:mm:ss) UTC,Instrument flags,absolute air pressure of the measurement (hPa),sample flow rate (lpm),inlet stack bypass flow (lpm),air temperature of the measurement (°C),ambient temperature measured by the external sensor (°C),aerosol sample conditioner tube jacket temperature (°C),OPC LED temperature (°C),internal box temperature (°C),relative humidity of the measurement (%),span deviation,mass concentration of particles derived from Lorenz-Mie calculation of OPC scattering (μg/m³),mass concentration of particles derived from Lorenz-Mie calculation of OPC scattering (μg/m³),mass concentration of particles derived from Lorenz-Mie calculation of OPC scattering (μg/m³)
DateTimeUTC,F1_M11,P_M11,Q1_M11,Q2_M11,T1_M11,T2_M11,T3_M11,T4_M11,T5_M11,U1_M11,ZSPAN_M11,X0_M11,X2_M11,X1_M11
2024-04-06 16:00:00,SystemResetWarning,0810.6,4.99,000.00,018.8,018.1,000.0,027.3,020.5,013.5,0000.0,0004.09,0000.64,0000.13
2024-04-06 16:01:00,SystemResetWarning,0810.4,4.99,000.00,018.8,018.1,000.0,027.3,020.5,013.1,0000.0,0004.11,0000.65,0000.14
2024-04-06 16:02:00,SystemResetWarning,0810.3,5.00,000.00,018.8,018.1,000.0,027.3,020.5,012.3,0000.0,0004.08,0000.65,0000.14
2024-04-06 16:03:00,SystemResetWarning,0810.6,5.00,000.00,018.8,018.1,000.0,027.3,020.5,012.7,0000.0,0003.95,0000.63,0000.14
2024-04-06 16:04:00,SystemResetWarning,0810.5,5.01,000.00,018.8,018.1,000.0,027.3,020.5,012.4,0000.0,0003.84,0000.63,0000.15
2024-04-06 16:05:00,SystemResetWarning,0810.6,5.00,000.00,018.8,018.1,000.0,027.3,020.5,012.1,0000.0,0002.68,0000.63,0000.15
2024-04-06 16:06:00,SystemResetWarning,0810.3,4.99,000.00,018.8,018.1,000.0,027.3,020.4,011.9,0000.0,0002.49,0000.60,0000.16
2024-04-06 16:07:00,SystemResetWarning,0810.4,4.99,000.00,018.8,018.1,000.0,027.2,020.4,011.9,0000.0,0002.53,0000.62,0000.16
2024-04-06 16:08:00,SystemResetWarning,0810.4,5.01,000.00,018.8,018.0,000.0,027.2,020.3,012.0,0000.0,0002.57,0000.64,0000.17
2024-04-06 16:09:00,SystemResetWarning,0810.5,5.01,000.00,018.7,018.0,000.0,027.2,020.3,012.0,0000.0,0003.32,0000.61,0000.16
2024-04-06 16:10:00,SystemResetWarning,0810.5,5.00,000.00,018.7,018.0,000.0,027.2,020.3,012.3,0000.0,0004.94,0000.61,0000.17
2024-04-06 16:11:00,SystemResetWarning,0810.6,4.99,000.00,018.7,018.0,000.0,027.2,020.3,012.2,0000.0,0005.03,0000.64,0000.17
2024-04-06 16:12:00,SystemResetWarning,0810.6,4.99,000.00,018.7,018.0,000.0,027.2,020.3,012.3,0000.0,0005.54,0000.69,0000.16
2024-04-06 16:13:00,SystemResetWarning,0810.6,4.99,000.00,018.7,017.9,000.0,027.2,020.3,012.3,0000.0,0006.34,0000.72,0000.17
2024-04-06 16:14:00,SystemResetWarning,0810.6,5.01,000.00,018.7,017.9,000.0,027.2,020.3,012.3,0000.0,0006.53,0000.76,0000.17
2024-04-06 16:15:00,SystemResetWarning,0810.6,5.00,000.00,018.7,017.9,000.0,027.2,020.2,012.1,0000.0,0006.89,0000.78,0000.17
2024-04-06 16:16:00,SystemResetWarning,0810.6,5.00,000.00,018.7,017.9,000.0,027.1,020.2,012.1,0000.0,0006.97,0000.81,0000.18
2024-04-06 16:17:00,SystemResetWarning,0810.5,4.99,000.00,018.6,017.9,000.0,027.1,020.2,012.1,0000.0,0007.14,0000.85,0000.18
2024-04-06 16:18:00,SystemResetWarning,0810.5,5.00,000.00,018.6,017.8,000.0,027.1,020.2,012.1,0000.0,0007.23,0000.82,0000.17
2024-04-06 16:19:00,SystemResetWarning,0810.6,5.00,000.00,018.6,017.8,000.0,027.1,020.1,012.2,0000.0,0007.25,0000.80,0000.18
2024-04-06 16:20:00,SystemResetWarning,0810.6,5.00,000.00,018.6,017.8,000.0,027.1,020.1,012.2,0000.0,0005.85,0000.86,0000.18
2024-04-06 16:21:00,SystemResetWarning,0810.6,5.01,000.00,018.6,017.8,000.0,027.1,020.0,012.3,0000.0,0003.94,0000.87,0000.18
2024-04-06 16:22:00,SystemResetWarning,0810.7,5.01,000.00,018.5,017.7,000.0,027.0,020.1,012.4,0000.0,0004.09,0000.90,0000.19
2024-04-06 16:23:00,SystemResetWarning,0810.8,5.00,000.00,018.5,017.7,000.0,027.0,020.1,012.5,0000.0,0003.82,0000.92,0000.20
2024-04-06 16:24:00,SystemResetWarning,0810.7,4.99,000.00,018.5,017.7,000.0,027.0,020.1,012.7,0000.0,0003.10,0000.94,0000.20
2024-04-06 16:25:00,SystemResetWarning,0810.6,5.01,000.00,018.5,017.7,000.0,027.0,020.0,012.6,0000.0,0003.80,0000.94,0000.20
2024-04-06 16:26:00,SystemResetWarning,0810.8,5.01,000.00,018.5,017.7,000.0,027.0,020.0,012.6,0000.0,0004.34,0001.00,0000.21
2024-04-06 16:27:00,SystemResetWarning,0810.8,4.99,000.00,018.5,017.7,000.0,027.0,020.1,012.8,0000.0,0004.39,0001.02,0000.21
2024-04-06 16:28:00,SystemResetWarning,0810.6,5.00,000.00,018.5,017.7,000.0,027.0,020.1,012.5,0000.0,0004.29,0001.01,0000.22
2024-04-06 16:29:00,SystemResetWarning,0810.7,5.02,000.00,018.5,017.7,000.0,027.0,020.0,012.2,0000.0,0005.38,0001.03,0000.23
2024-04-06 16:30:00,SystemResetWarning,0810.9,4.99,000.00,018.5,017.7,000.0,027.0,020.0,012.2,0000.0,0005.87,0001.04,0000.23
2024-04-06 16:31:00,SystemResetWarning,0810.8,4.99,000.00,018.4,017.7,000.0,026.9,020.0,012.3,0000.0,0006.78,0001.08,0000.24
2024-04-06 16:32:00,SystemResetWarning,0810.8,5.00,000.00,018.4,017.7,000.0,026.9,020.0,012.3,0000.0,0007.15,0001.15,0000.24
2024-04-06 16:33:00,SystemResetWarning,0810.8,5.01,000.00,018.4,017.7,000.0,026.9,020.0,012.1,0000.0,0007.22,0001.18,0000.26
2024-04-06 16:34:00,SystemResetWarning,0810.8,5.01,000.00,018.4,017.7,000.0,026.9,020.0,012.0,0000.0,0007.27,0001.16,0000.26
2024-04-06 16:35:00,SystemResetWarning,0810.8,4.99,000.00,018.4,017.7,000.0,026.9,020.0,012.0,0000.0,0007.76,0001.21,0000.26
2024-04-06 16:36:00,SystemResetWarning,0810.7,4.99,000.00,018.4,017.6,000.0,026.9,020.0,011.9,0000.0,0007.88,0001.19,0000.26
2024-04-06 16:37:00,SystemResetWarning,0810.8,5.01,000.00,018.4,017.6,000.0,026.9,020.0,011.9,0000.0,0007.98,0001.15,0000.26
2024-04-06 16:38:00,SystemResetWarning,0810.8,5.01,000.00,018.4,017.6,000.0,026.9,020.0,012.0,0000.0,0008.05,0001.13,0000.26
2024-04-06 16:39:00,SystemResetWarning,0810.7,5.01,000.00,018.4,017.6,000.0,026.9,020.0,011.9,0000.0,0008.49,0001.19,0000.27
2024-04-06 16:40:00,SystemResetWarning,0810.7,5.00,000.00,018.4,017.6,000.0,026.9,020.0,011.9,0000.0,0008.13,0001.24,0000.27
2024-04-06 16:41:00,SystemResetWarning,0810.7,4.99,000.00,018.4,017.6,000.0,026.9,020.0,011.8,0000.0,0008.04,0001.31,0000.28
2024-04-06 16:42:00,SystemResetWarning,0810.9,5.00,000.00,018.4,017.5,000.0,026.9,020.0,011.6,0000.0,0007.69,0001.25,0000.28
2024-04-06 16:43:00,SystemResetWarning,0810.7,5.00,000.00,018.4,017.5,000.0,026.9,020.0,011.8,0000.0,0008.18,0001.21,0000.29
2024-04-06 16:44:00,SystemResetWarning,0810.8,5.01,000.00,018.4,017.5,000.0,026.9,020.0,011.6,0000.0,0008.23,0001.17,0000.28
2024-04-06 16:45:00,SystemResetWarning,0810.6,5.01,000.00,018.4,017.5,000.0,026.9,020.0,011.7,0000.0,0008.12,0001.17,0000.29
2024-04-06 16:46:00,SystemResetWarning,0810.8,5.01,000.00,018.4,017.5,000.0,027.0,020.0,011.4,0000.0,0008.30,0001.14,0000.29
2024-04-06 16:47:00,SystemResetWarning,0810.8,4.99,000.00,018.4,017.5,000.0,027.0,020.0,011.5,0000.0,0008.99,0001.17,0000.31
2024-04-06 16:48:00,SystemResetWarning,0810.9,4.99,000.00,018.4,017.5,000.0,026.9,020.0,011.4,0000.0,0009.31,0001.20,0000.32
2024-04-06 16:49:00,SystemResetWarning,0810.9,5.01,000.00,018.4,017.5,000.0,026.9,020.0,011.5,0000.0,0010.22,0001.26,0000.33
2024-04-06 16:50:00,SystemResetWarning,0810.9,5.01,000.00,018.4,017.5,000.0,026.9,020.0,011.4,0000.0,0010.23,0001.33,0000.34
2024-04-06 16:51:00,SystemResetWarning,0810.8,5.00,000.00,018.4,017.5,000.0,026.9,020.0,011.3,0000.0,0010.89,0001.31,0000.35
2024-04-06 16:52:00,SystemResetWarning,0810.9,5.00,000.00,018.4,017.5,000.0,026.9,020.0,011.1,0000.0,0011.46,0001.29,0000.35
2024-04-06 16:53:00,SystemResetWarning,0811.0,4.99,000.00,018.4,017.5,000.0,026.9,020.0,011.3,0000.0,0011.19,0001.32,0000.36
2024-04-06 16:54:00,SystemResetWarning,0811.0,4.99,000.00,018.4,017.5,000.0,026.9,020.0,011.4,0000.0,0010.78,0001.36,0000.37
2024-04-06 16:55:00,SystemResetWarning,0810.8,5.00,000.00,018.3,017.5,000.0,026.9,020.0,011.1,0000.0,0010.61,0001.40,0000.38
2024-04-06 16:56:00,SystemResetWarning,0810.7,5.01,000.00,018.4,017.5,000.0,026.9,020.0,011.1,0000.0,0011.03,0001.43,0000.39
2024-04-06 16:57:00,SystemResetWarning,0810.8,5.01,000.00,018.3,017.5,000.0,026.9,020.0,011.1,0000.0,0011.29,0001.43,0000.39
2024-04-06 16:58:00,SystemResetWarning,0810.9,5.00,000.00,018.3,017.5,000.0,026.9,020.0,011.2,0000.0,0011.33,0001.42,0000.39
2024-04-06 16:59:00,SystemResetWarning,0810.8,4.99,000.00,018.3,017.5,000.0,026.9,020.0,011.4,0000.0,0010.04,0001.37,0000.38
